Regional Weather Roundup
Issued by NWS

Home | Current Version | Previous Version | Graphics & Text | Print | Product List | Glossary Off
Versions: 1 2 3 4 5 6 7 8 9 10 11 12 13 14 15 16 17 18 19 20 21 22 23 24 25 26 27 28 29 30 31 32 33 34 35 36 37 38 39 40 41 42 43 44 45 46 47 48 49 50

000
ASUS43 KTOP 132059
RWRKS

WEATHER ROUNDUP FOR KANSAS
NATIONAL WEATHER SERVICE GOODLAND KS
400 PM CDT SUN JUL 13 2014

NOTE:  "FAIR" INDICATES FEW OR NO CLOUDS BELOW 12,000 FEET WITH NO
SIGNIFICANT WEATHER AND/OR OBSTRUCTIONS TO VISIBILITY.

KSZ001>006-013>018-027>032-041>047-132200-
NORTHWEST KANSAS

CITY           SKY/WX    TMP DP  RH WIND       PRES   REMARKS
GOODLAND       TSTM      69  64  84 N23G38    30.21R
HAYS           MOSUNNY   88  61  40 E8        30.09F
HILL CITY      SUNNY     93  56  28 NE9       30.10F
RUSSELL        MOSUNNY   86  63  45 E8        30.06F
$$

KSZ061>065-074>080-084>089-132200-
SOUTHWEST KANSAS

CITY           SKY/WX    TMP DP  RH WIND       PRES   REMARKS
DODGE CITY     MOSUNNY   88  59  37 NE10      30.13F
ELKHART          N/A     88  59  37 NE5         N/A
GARDEN CITY    PTSUNNY   84  59  42 NE7       30.16F
GREAT BEND     MOSUNNY   86  63  45 NE6       30.07F
LIBERAL        PTSUNNY   86  61  42 NE9       30.15F
$$

KSZ066>073-081>083-090>101-132200-
SOUTHEAST KANSAS

CITY           SKY/WX    TMP DP  RH WIND       PRES   REMARKS
CHANUTE        SUNNY     90  67  46 CALM      29.98F
COFFEYVILLE    SUNNY     93  69  45 W8        29.95F HX  98
HUTCHINSON     PTSUNNY   83  69  62 CALM      30.06F
MEDICINE LODGE   N/A     87  70  56 NE12      30.04F
NEWTON         PTSUNNY   82  64  54 NE10      30.08F
PARSONS        SUNNY     92  70  48 SW9       29.98F HX  97
WICHITA INTL   PTSUNNY   87  69  54 N14G20    30.02F
WICHITA JABRA  CLOUDY    86  72  62 N12       30.03S
WINFIELD       PTSUNNY   89  73  59 NW6       30.01S HX  97
$$

KSZ007>012-019>026-033>040-048>060-102>105-132200-
NORTHEAST KANSAS

CITY           SKY/WX    TMP DP  RH WIND       PRES   REMARKS
CONCORDIA      MOSUNNY   87  64  46 VRB6      30.05F
EMPORIA        CLOUDY    84  70  62 VRB5      30.02R
LAWRENCE       PTSUNNY   87  72  60 N10       29.99F
MANHATTAN      MOSUNNY   89  66  46 VRB5      30.02F
OLATHE IND     CLOUDY    85  72  65 N6        30.00F
OLATHE EXE     CLOUDY    84  72  67 VRB5      29.99F
SALINA         MOSUNNY   90  64  42 N10       30.05F
TOPEKA BILLARD MOSUNNY   88  70  55 N6        30.01S
TOPEKA FORBES  MOSUNNY   85  71  63 N8        30.01S
$$


USA.gov is the U.S. government's official web portal to all federal, state and local government web resources and services.